Weather in Solov'i

Russia / Pskov Oblast     57°41′11″N   28°20′23″E
temp.,
°C
wind,
m/s
gust,
m/s
humid.,
%
clouds,
%
prec.,
mm/h
press.,
hPa
HPBL,
m
21 january, thu
thu2100:00−11sse51090100 0.0 1011422
03:00−10sse51193100 0.4 1009489
06:00−9sse51094100 1.6 1007489
09:00−8sse51093100 2.8 1005401
12:00−6sse4993100 0.3 1005382
15:00−3sse4895100 0.7 1004329
18:00−1sse41097100 1.8 1003406
21:00+1s51094100 2.4 1002466
22 january, fri
fri2200:000s51092100 0.0 1002370
03:00−1s41193100 0.0 1003385
06:00−1s5119498 0.0 1002392
09:00+1s5109598 0.0 1002501
12:00+1s61096100 0.0 1002524
15:00+1s51195100 0.0 1001517
18:00+1s51195100 0.0 1000444
21:00+1s51195100 0.0 1000429
23 january, sat
sat2300:00+1s51097100 0.0 1000437
03:00+1s5997100 0.0 999479
06:00+1ssw2897100 0.0 999315
09:00+1s2497100 0.0 1000107
12:00+1s3699100 0.0 1001172
15:00+1s3599100 0.0 1002159
18:00+1sse3699100 0.0 1003161
21:00+1sse3898100 0.0 1002269
24 january, sun
sun2400:00+1se4997100 0.0 1001292
03:00+2se51198100 0.6 1000410
06:00+2s41197100 0.6 999462
09:00+1sse41196100 0.6 999432
12:00+1sse51197100 0.0 999432
15:00+2sse51298100 1.4 998481
18:00+2se3999100 1.1 997272
21:00+2ese4998100 1.4 996277
25 january, mon
mon2500:00+2ese41099100 0.9 994309
03:00+3se41198100 3.0 992384
06:00+3se41097100 2.1 991327
09:00+2s51197100 3.5 993454
12:00+1ssw61297100 0.4 997696
15:00+1ssw5108096 0.5 1000839
18:000s4108583 0.0 1002490
21:000sse369091 0.0 1003282